FW2439 Weather Reports


time (UTC)temp
C
wind
direction
speed
KPH
gust
KPH
rain 1hr
cm
rain 24hr
cm
rain mn
cm
humidity
%
barometer
mb
20260902041539 23 266 0.0 0.0 0.00 0.00 0.00 94 1017.0
20260902040025 23 266 0.0 0.0 0.00 0.00 0.00 93 1017.0
20260902034519 23 266 0.0 0.0 0.00 0.00 0.00 92 1017.0
20260902033019 24 266 0.0 0.0 0.00 0.00 0.00 92 1017.1
20260902031518 25 266 0.0 0.0 0.00 0.00 0.00 92 1017.1
20260902030018 25 266 0.0 0.0 0.00 0.00 0.00 91 1017.2
20260902024516 25 266 0.0 0.0 0.00 0.00 0.00 90 1017.1
20260902023017 25 266 0.0 0.0 0.00 0.00 0.00 89 1017.0
20260902021517 25 266 0.0 0.0 0.00 0.00 0.00 87 1016.9
20260902020016 26 266 0.0 0.0 0.00 0.00 0.00 85 1016.7
20260902014523 26 266 0.0 0.0 0.00 0.00 0.00 84 1016.6
20260902013014 27 266 0.0 0.0 0.00 0.00 0.00 83 1016.4
20260902011518 27 266 0.0 0.0 0.00 0.00 0.00 81 1016.3
20260902010012 28 266 0.0 0.0 0.00 0.00 0.00 79 1016.0
20260902004522 28 266 0.0 0.0 0.00 0.00 0.00 77 1016.1
20260902003034 29 265 0.0 0.0 0.00 0.00 0.00 75 1016.0
20260902001511 30 266 0.0 0.0 0.00 0.00 0.00 70 1016.0
20260902000014 31 266 0.0 0.0 0.00 0.00 0.00 68 1016.0
20260901234511 32 265 0.0 0.0 0.00 0.00 0.00 65 1016.1
20260901233012 33 265 0.0 0.0 0.00 0.00 0.00 63 1016.3
20260901231509 33 265 0.0 0.0 0.00 0.00 0.00 60 1016.2
20260901230008 34 265 0.0 1.6 0.00 0.00 0.00 57 1016.1
20260901224510 35 265 0.0 1.6 0.00 0.00 0.00 55 1016.1
20260901223007 36 248 0.0 3.2 0.00 0.00 0.00 51 1016.0
20260901221509 36 231 0.0 4.8 0.00 0.00 0.00 52 1016.1
20260901220105 36 242 0.0 1.6 0.00 0.00 0.00 55 1016.1
20260901214504 36 236 0.0 3.2 0.00 0.00 0.00 55 1016.1
20260901213002 35 259 0.0 1.6 0.00 0.00 0.00 60 1016.2
20260901211502 36 319 1.6 4.8 0.00 0.00 0.00 53 1016.2
20260901210129 36 265 0.0 9.7 0.00 0.00 0.00 56 1016.4
20260901204559 35 225 0.0 4.8 0.00 0.00 0.00 56 1016.4
20260901203058 36 239 0.0 4.8 0.00 0.00 0.00 55 1016.4
20260901201555 36 247 0.0 4.8 0.00 0.00 0.00 57 1016.6
20260901200056 36 264 0.0 4.8 0.00 0.00 0.00 54 1016.9
20260901194602 36 228 1.6 4.8 0.00 0.00 0.00 54 1017.0
20260901193050 35 231 1.6 4.8 0.00 0.00 0.00 53 1017.2
20260901191555 35 229 3.2 6.4 0.00 0.00 0.00 53 1017.4
20260901190111 35 305 1.6 8.0 0.00 0.00 0.00 51 1017.6
20260901184542 35 288 1.6 4.8 0.00 0.00 0.00 54 1017.8
20260901183040 35 270 0.0 4.8 0.00 0.00 0.00 58 1018.0
20260901181542 35 236 1.6 4.8 0.00 0.00 0.00 58 1018.3
20260901180039 34 299 3.2 8.0 0.00 0.00 0.00 58 1018.3
20260901174545 34 316 1.6 8.0 0.00 0.00 0.00 60 1018.6
20260901173036 33 282 1.6 8.0 0.00 0.00 0.00 62 1018.7
20260901171535 33 77 3.2 8.0 0.00 0.00 0.00 61 1019.0
20260901170034 34 341 1.6 8.0 0.00 0.00 0.00 62 1019.1
20260901164538 33 249 1.6 6.4 0.00 0.00 0.00 61 1019.3
20260901163059 34 229 1.6 8.0 0.00 0.00 0.00 61 1019.5
20260901161531 33 251 0.0 6.4 0.00 0.00 0.00 61 1019.6
20260901160030 34 223 1.6 6.4 0.00 0.00 0.00 62 1019.6
20260901154545 34 224 1.6 6.4 0.00 0.00 0.00 62 1019.5
20260901153037 33 274 0.0 4.8 0.00 0.00 0.00 65 1019.6
20260901151526 33 231 0.0 1.6 0.00 0.00 0.00 65 1019.7
20260901150022 33 228 1.6 3.2 0.00 0.00 0.00 68 1019.5
20260901144521 32 222 0.0 1.6 0.00 0.00 0.00 72 1019.5
20260901143015 30 214 0.0 1.6 0.00 0.00 0.00 77 1019.6
20260901141514 29 221 1.6 4.8 0.00 0.00 0.00 79 1019.7
20260901140006 27 225 0.0 3.2 0.00 0.00 0.00 87 1019.7
20260901134501 26 228 0.0 0.0 0.00 0.00 0.00 93 1019.7
20260901133106 24 237 0.0 1.6 0.00 0.00 0.00 96 1019.7
20260901131554 23 237 0.0 1.6 0.00 0.00 0.00 98 1019.8
20260901130048 22 237 0.0 0.0 0.00 0.00 0.00 100 1019.8
20260901124547 22 237 0.0 0.0 0.00 0.00 0.00 100 1019.7
20260901123045 22 237 0.0 0.0 0.00 0.00 0.00 100 1019.5
20260901121550 21 237 0.0 0.0 0.00 0.00 0.00 99 1019.4
20260901120042 21 237 0.0 0.0 0.00 0.00 0.00 99 1019.3
20260901114543 21 237 0.0 0.0 0.00 0.00 0.00 99 1019.2
20260901113041 21 237 0.0 0.0 0.00 0.00 0.00 99 1019.0
20260901111537 21 237 0.0 0.0 0.00 0.00 0.00 99 1018.9
20260901110044 21 237 0.0 0.0 0.00 0.00 0.00 99 1018.6
20260901104542 21 237 0.0 0.0 0.00 0.00 0.00 99 1018.5
20260901103041 21 237 0.0 0.0 0.00 0.00 0.00 99 1018.6
20260901101535 21 237 0.0 0.0 0.00 0.00 0.00 99 1018.4
20260901100048 21 237 0.0 0.0 0.00 0.00 0.00 99 1018.3
20260901094533 21 237 0.0 0.0 0.00 0.00 0.00 99 1018.3
20260901093031 21 237 0.0 0.0 0.00 0.00 0.00 98 1018.3
20260901091534 22 237 0.0 0.0 0.00 0.00 0.00 99 1018.4
20260901090044 22 237 0.0 0.0 0.00 0.00 0.00 98 1018.0
20260901084528 22 237 0.0 0.0 0.00 0.00 0.00 98 1017.9
20260901083027 22 237 0.0 0.0 0.00 0.00 0.00 98 1018.0
20260901081528 22 237 0.0 0.0 0.00 0.00 0.00 98 1018.1
20260901080024 22 237 0.0 0.0 0.00 0.00 0.00 98 1017.9
20260901074523 22 237 0.0 0.0 0.00 0.00 0.00 97 1017.9
20260901073028 22 237 0.0 0.0 0.00 0.00 0.00 97 1017.8
20260901071522 22 237 0.0 0.0 0.00 0.00 0.00 97 1017.8
20260901070019 22 237 0.0 0.0 0.00 0.00 0.00 97 1017.7
20260901064521 22 237 0.0 0.0 0.00 0.00 0.00 97 1017.7
20260901063017 22 237 0.0 0.0 0.00 0.00 0.00 96 1017.9
20260901061516 22 237 0.0 0.0 0.00 0.00 0.00 96 1017.8
20260901060020 22 237 0.0 0.0 0.00 0.00 0.00 96 1017.8
20260901054518 22 237 0.0 0.0 0.00 0.00 0.00 96 1017.8
20260901053007 23 237 0.0 0.0 0.00 0.00 0.00 96 1017.7
20260901051503 23 237 0.0 0.0 0.00 0.00 0.00 95 1017.8
20260901050059 23 237 0.0 0.0 0.00 0.00 0.00 94 1017.9
20260901044600 23 237 0.0 0.0 0.00 0.00 0.00 94 1017.7
20260901043059 23 237 0.0 0.0 0.00 0.00 0.00 94 1017.7